Weather History for Pueblo, CO

Change the Weather History Date:

Sunday, September 23, 2012

  Actual Average Record
Temperature  
Mean Temperature 66 °F 61 °F  
Max Temperature 89 °F 79 °F 95 °F (2003)
Min Temperature 43 °F 44 °F 28 °F (1895)
Degree Days  
Heating Degree Days 0 5  
Month to date heating degree days 33 51  
Since 1 July heating degree days 33 56  
Cooling Degree Days 1 1  
Month to date cooling degree days 101 76  
Year to date cooling degree days 1317 887  
Growing Degree Days 16 (Base 50)    
Moisture  
Dew Point 32 °F    
Average Humidity 37    
Maximum Humidity 62    
Minimum Humidity 11    
Precipitation  
Precipitation 0.00 in 0.03 in 0.44 in (1960)
Month to date precipitation 0.51 0.63  
Year to date precipitation 4.19 10.86  
Snow  
Snow 0.00 in 0.00 in 0.00 in (2002)
Month to date snowfall 0.0 0.2  
Since 1 July snowfall 0.0 0.2  
Since 1 September snowfall 0.0 0.2  
Snow Depth 0.00 in    
Sea Level Pressure  
Sea Level Pressure 30.05 in    
Wind  
Wind Speed 6 mph (ENE)    
Max Wind Speed 22 mph    
Max Gust Speed 26 mph    
Visibility 10 miles    
Events      
T = Trace of Precipitation, MM = Missing Value Source: NWS Daily Summary

Daily Weather History Graph

Daily Weather History Graph

Search for Another Location

Airport:

Trip Planner

Search our weather history database for the weather conditions in past years. The results will help you decide how hot, cold, wet, or windy it might be!

Date:

Astronomy

Sep. 23, 2012 Rise Set
Actual Time 6:47 AM MDT 6:52 PM MDT
Civil Twilight 6:20 AM MDT 7:18 PM MDT
Nautical Twilight 5:49 AM MDT 7:49 PM MDT
Astronomical Twilight 5:18 AM MDT 8:20 PM MDT
Moon 2:51 PM MDT (9/23) 12:06 AM MDT (9/23)
Length of Visible Light 12h 58m
Length of Day
12h 05m
First Quarter, 60% of the Moon is Illuminated
Sep 23
First Quarter
Sep 29
Full
Oct 8
Last Quarter
Oct 15
New
Oct 21
First Quarter

Hourly Weather History & Observations

Time (MDT) Temp. Windchill Dew Point Humidity Pressure Visibility Wind Dir Wind Speed Gust Speed Precip Events Conditions
12:53 AM 55.0 °F - 32.0 °F 42% 30.14 in 10.0 mi NE 4.6 mph - N/A   Clear
1:53 AM 52.0 °F - 32.0 °F 47% 30.14 in 10.0 mi NE 9.2 mph - N/A   Clear
2:53 AM 51.1 °F - 32.0 °F 48% 30.14 in 10.0 mi NE 8.1 mph - N/A   Clear
3:53 AM 50.0 °F - 32.0 °F 50% 30.13 in 10.0 mi NE 4.6 mph - N/A   Clear
4:53 AM 46.9 °F - 32.0 °F 56% 30.12 in 10.0 mi NNE 4.6 mph - N/A   Clear
5:53 AM 44.1 °F - 30.9 °F 60% 30.14 in 10.0 mi Calm Calm - N/A   Clear
6:53 AM 43.0 °F 40.3 °F 30.9 °F 62% 30.17 in 10.0 mi North 4.6 mph - N/A   Clear
7:53 AM 48.9 °F - 32.0 °F 52% 30.17 in 10.0 mi North 4.6 mph - N/A   Clear
8:53 AM 55.0 °F - 33.1 °F 43% 30.15 in 10.0 mi Calm Calm - N/A   Clear
9:53 AM 57.0 °F - 33.1 °F 40% 30.13 in 10.0 mi Calm Calm - N/A   Clear
10:53 AM 63.0 °F - 34.0 °F 34% 30.10 in 10.0 mi Variable 4.6 mph - N/A   Clear
11:53 AM 68.0 °F - 36.0 °F 31% 30.06 in 10.0 mi Variable 4.6 mph - N/A   Clear
12:53 PM 75.9 °F - 36.0 °F 23% 30.01 in 10.0 mi Calm Calm - N/A   Clear
1:53 PM 82.0 °F - 36.0 °F 19% 29.97 in 10.0 mi ESE 6.9 mph - N/A   Clear
2:53 PM 87.1 °F - 28.0 °F 12% 29.92 in 10.0 mi ESE 5.8 mph - N/A   Clear
3:53 PM 88.0 °F - 26.1 °F 11% 29.91 in 10.0 mi ESE 9.2 mph - N/A   Clear
4:53 PM 86.0 °F - 28.9 °F 13% 29.91 in 10.0 mi SSE 9.2 mph - N/A   Clear
5:53 PM 84.0 °F - 27.0 °F 13% 29.94 in 10.0 mi SE 5.8 mph - N/A   Clear
6:53 PM 81.0 °F - 30.0 °F 16% 29.96 in 10.0 mi West 8.1 mph - N/A   Clear
7:53 PM 75.0 °F - 33.1 °F 22% 29.99 in 10.0 mi ESE 13.8 mph - N/A   Clear
8:53 PM 72.0 °F - 34.0 °F 25% 30.00 in 10.0 mi East 8.1 mph - N/A   Clear
9:53 PM 69.1 °F - 36.0 °F 30% 30.00 in 10.0 mi East 6.9 mph - N/A   Clear
10:53 PM 66.9 °F - 36.0 °F 32% 29.99 in 10.0 mi ENE 8.1 mph - N/A   Clear
11:53 PM 62.1 °F - 36.0 °F 38% 30.00 in 10.0 mi NNW 6.9 mph - N/A   Clear